World > North America > United States > Minnesota > Mozeppa

Hourly Mozeppa, MN Regional Weather

Feedback E-mail the Weather

Quick WX

Mozeppa, MN Weather Maps

°F °C°F °C
Mozeppa Weather Map
UTC Time: 8/17/2022, 19:21
Your Time:

Mozeppa, MN Regional Weather

Expires:202208172000;;210712
ASUS43 KMPX 171910
RWRMN 
WEATHER ROUNDUP FOR MINNESOTA
NATIONAL WEATHER SERVICE TWIN CITIES/CHANHASSEN MN
200 PM CDT WED AUG 17 2022


NOTE: "FAIR" INDICATES FEW OR NO CLOUDS BELOW 12,000 FEET WITH NO
SIGNIFICANT WEATHER AND/OR OBSTRUCTIONS TO VISIBILITY. N/A MEANS
CURRENT SKY AND/OR WEATHER CONDITIONS ARE NOT AVAILABLE.


MNZ006-009>011-018-025>026-172000-
   North Central Minnesota   
  
CITY           SKY/WX    TMP DP  RH WIND       PRES   REMARKS
BAUDETTE       MOSUNNY   83  65  54 VRB5      30.05F                  
INTL FALLS     SUNNY     81  63  54 NW6       30.05F                  
WASKISH        SUNNY     81  70  69 W8        30.07S                  
BIG FORK       MOSUNNY   81  68  65 S8        30.12F                  
LONGVILLE      SUNNY     79  66  65 S6        30.09F                  
GRAND RAPIDS   MOSUNNY   70  68  93 CALM      30.10F THUNDER          
CRANE LAKE     MOSUNNY   75  63  64 N3        30.08F                  
ORR            PTSUNNY   75  64  69 CALM      30.05F                  
COOK           PTSUNNY   79  64  61 SW3       30.07F                  
WALKER         MOCLDY    80  64  57 S8        30.08S                  
$$

SKY/WX - Weather  TMP - Temperature  DP - Dew Point  RH - Humidity
WIND - Wind Direction/Speed PRES - Barometric Pressure VSB - Visibility
WCI - Wind Chill Index E13G22 Wind - East Wind 13 mph/Gusts of 22 mph

Trending Headlines

Mozeppa Radar Loop



Mozeppa Quick Facts


National Two Day Weather Forecast


E-mail the Mozeppa Weather Forecast

Voice your opinion or tell us about page issues...